Regional Weather Roundup
Issued by NWS Cleveland, OH

Home | Current Version | Previous Version | Graphics & Text | Print | Product List | Glossary On
Versions: 1 2 3 4 5 6 7 8 9 10 11 12 13 14 15 16 17 18 19 20 21 22 23 24 25 26 27 28 29 30 31 32 33 34 35 36 37 38 39 40 41 42 43 44 45 46 47 48 49 50
644
ASUS41 KCLE 011700
RWRCLE
OHIO REGIONAL WEATHER ROUNDUP
NATIONAL WEATHER SERVICE WILMINGTON, OH
100 PM EDT SUN MAY 01 2016

NOTE: "FAIR" INDICATES FEW OR NO CLOUDS BELOW 12,000 FEET WITH NO
SIGNIFICANT WEATHER AND/OR OBSTRUCTIONS TO VISIBILITY.

OHZ001>008-015>018-024>027-034-035-043-044-011800-
   NORTHWEST OHIO

CITY           SKY/WX    TMP DP  RH WIND       PRES   REMARKS
DEFIANCE       CLOUDY    56  52  86 N6        29.97S FOG
FINDLAY        CLOUDY    63  55  75 N7        29.94S
TOLEDO EXPRESS CLOUDY    53  51  93 NE3       29.97R FOG
TOLEDO EXEC    CLOUDY    54  50  86 NE7       29.98R
LIMA           PTSUNNY   67  62  84 VRB3      29.93F
$$

OHZ009>014-019>023-028>033-038-089-011800-
   NORTHEAST OHIO

CITY           SKY/WX    TMP DP  RH WIND       PRES   REMARKS
CLE-HOPKINS    CLOUDY    60  55  83 NW3       29.96S
CLE-LAKEFRONT  CLOUDY    52  51  97 NW5       29.94S FOG
CUY CO. ARPT   CLOUDY    59  55  88 W9        29.95S FOG
LORAIN-ELYRIA  CLOUDY    59  54  83 NW10      29.95S
ASHTABULA      CLOUDY    55  54  96 NW9       29.94R
AKRON-CANTON   CLOUDY    67  58  72 SW12G18   29.94S
WOOSTER        NOT AVBL
MANSFIELD      PTSUNNY   69  60  73 W8        29.94F
YOUNGSTOWN     PTSUNNY   66  58  75 W9        29.93F
$$

OHZ042-051>053-060>062-070>072-077>081-011800-
  SOUTHWEST OHIO

CITY           SKY/WX    TMP DP  RH WIND       PRES   REMARKS
CINC-COVINGTON FAIR      75  60  59 VRB3      29.94F
CINC-LUNKEN    PTSUNNY   74  63  68 S3        29.92F
HAMILTON       FAIR      75  61  61 VRB5      29.94F
DAYTON         NOT AVBL
WRIGHT-PAT AFB FAIR      72  63  73 S6        29.93F
DAYTON GENERAL FAIR      71  60  68 CALM      29.93F
WILMINGTON     FAIR      72  61  68 SW9       29.94F
$$

OHZ036-037-039>041-045>050-054>059-063>069-073>076-082>088-011800-
  CENTRAL AND SOUTHEAST OHIO

CITY           SKY/WX    TMP DP  RH WIND       PRES   REMARKS
COLUMBUS       PTSUNNY   66  61  84 SW9       29.94F
OSU AIRPORT    FAIR      70  61  73 S9        29.94S
BOLTON FIELD   CLOUDY    68  63  83 CALM      29.96S
RICKENBACK AFB NOT AVBL
NEWARK         CLOUDY    70  60  70 W8        29.94S
MARION         PTSUNNY   69  59  70 VRB3      29.94F
LANCASTER      PTSUNNY   72  62  71 SW10      29.95S
ZANESVILLE     FAIR      72  62  71 W8        29.94F
NEW PHILLY     CLOUDY    68  60  75 W6        29.94F
$$




USA.gov is the U.S. government's official web portal to all federal, state and local government web resources and services.